Location: Joplin, MO
(37.0842°N, 94.5133°W)
Time: 19:05:40
(UTC+02:00)

Transit 2A Rocket - Pass Details

Date: 29 March 2023
Orbit: 584 x 914 km, 66.7° (Epoch: 09 June)

Event Time Altitude Azimuth Distance (km) Brightness Sun altitude
Rises 04:35:13 0° 324° (NW) 3,545 9.4 -23.6°
Reaches altitude 10° 04:37:54 10° 318° (NW) 2,585 8.6 -24.1°
Maximum altitude 04:43:30 41° 250° (WSW) 1,245 6.3 -25.1°
Enters shadow 04:46:48 21° 193° (SSW) 1,799 6.8 -25.7°
Drops below altitude 10° 04:48:46 10° 182° (S) 2,429 - -26.0°
Sets 04:51:14 0° 175° (S) 3,309 - -26.5°
